Regional Weather Roundup
Issued by NWS

Home | Current Version | Previous Version | Text Only | Print | Product List | Glossary Off
Versions: 1 2 3 4 5 6 7 8 9 10 11 12 13 14 15 16 17 18 19 20 21 22 23 24 25 26 27 28 29 30 31 32 33 34 35 36 37 38 39 40 41 42 43 44 45 46 47 48 49 50

815
ASUS43 KIND 260159
RWRIN

WEATHER ROUNDUP FOR INDIANA
NATIONAL WEATHER SERVICE INDIANAPOLIS IN
900 PM EST SAT FEB 25 2017

NOTE: "FAIR" INDICATES FEW OR NO CLOUDS BELOW 12,000 FEET WITH NO
SIGNIFICANT WEATHER AND/OR OBSTRUCTIONS TO VISIBILITY.

* - STATION DOES NOT REPORT WEATHER SUCH AS PRECIPITATION OR FOG.

+ - STATION NOT QUALITY CONTROLLED BY THE NATIONAL WEATHER SERVICE.
    USE DATA WITH CAUTION...ESPECIALLY DEWPOINT AND RELATIVE
    HUMIDITY OBSERVATIONS.

INZ001>003-010>013-019-020-260300-
NORTHWEST INDIANA

CITY           SKY/WX    TMP DP  RH WIND       PRES   REMARKS
GARY /AIRPORT/ MOCLDY    27  14  59 W14       30.02R WCI  15
KNOX *+        CLOUDY    28  -2  26 W13       30.00R WCI  18
MICHIGAN CITY+ CLOUDY    28  16  59 NW8       30.00R WCI  20
RENSSELAER +     N/A     28  18  64 W12       30.02R WCI  18

$$

LMZ046-743>745-260300-
SOUTHERN LAKE MICHIGAN

STATION/POSITION TIME  TEMP    WIND        PRES    WAVE
                       AIR SEA DIR/SP/G            HT
                 (UTC) (F)     (DEG/KT/KT) (MB)    (FT)
BURNS HARBOR     0109   28     290/ 15/ 22 1015.9
MICHIGAN CITY    0130   27     250/ 17/ 19   N/A

$$

INZ004-005-014>016-021>024-260300-
NORTH CENTRAL INDIANA

CITY           SKY/WX    TMP DP  RH WIND       PRES   REMARKS
GOSHEN         CLOUDY    25  16  68 W12       29.98R WCI  14
SOUTH BEND     CLOUDY    25  16  68 W12       29.98R WCI  14

$$

INZ006>009-017-018-025>027-260300-
NORTHEAST INDIANA

CITY           SKY/WX    TMP DP  RH WIND       PRES   REMARKS
ANGOLA *+      CLOUDY    25  19  80 W9        29.94R WCI  15
FORT WAYNE     CLOUDY    27  18  69 W17       29.98R WCI  14
KENDALLVILLE + FLURRIES  24  18  75 W7        29.96R WCI  16

$$

INZ028-029-035-036-043>045-051>053-260300-
WEST CENTRAL INDIANA

CITY           SKY/WX    TMP DP  RH WIND       PRES   REMARKS
LAFAYETTE      CLEAR     26  17  68 W10       30.03S WCI  16
TERRE HAUTE    CLEAR     31  13  47 W10       30.07R WCI  22

$$

INZ030>032-037>040-046>048-054>057-064-065-260300-
CENTRAL INDIANA

CITY           SKY/WX    TMP DP  RH WIND       PRES   REMARKS
COLUMBUS       MOCLDY    28  18  64 SW7       30.06R WCI  21
GREENWOOD *+   CLEAR     30  17  56 W7        30.03S WCI  24
INDIANAPOLIS   MOCLDY    29  15  56 W10       30.03R WCI  20
-EAGLE CREEK   CLEAR     30  17  58 W7        30.02S WCI  23
KOKOMO +       CLOUDY    28  20  71 W17       30.01R WCI  16
MT COMFORT *+  PTCLDY    25  18  74 W7        30.02S WCI  17
SHELBYVILLE    CLEAR     28  16  60 W6        30.02S WCI  22

$$

INZ033-034-041-042-049-050-058-059-260300-
EAST CENTRAL INDIANA

CITY           SKY/WX    TMP DP  RH WIND       PRES   REMARKS
MUNCIE         CLOUDY    29  17  61 W14       30.00R WCI  18

$$

INZ060-061-067>069-081>083-085>088-260300-
SOUTHWEST INDIANA

CITY           SKY/WX    TMP DP  RH WIND       PRES   REMARKS
EVANSVILLE     CLEAR     33  17  51 CALM      30.12R
HUNTINGBURG *+ CLEAR     31  18  58 W5        30.10R WCI  26

$$

INZ062-063-066-070>080-084-089>092-260300-
SOUTH CENTRAL AND SOUTHEAST INDIANA

CITY           SKY/WX    TMP DP  RH WIND       PRES   REMARKS
BLOOMINGTON    CLEAR     30  15  53 W6        30.05R WCI  24
MADISON *+     CLEAR     30  19  64 CALM      30.08R
SEYMOUR +      CLEAR     30  18  59 W6        30.06S WCI  24

$$





USA.gov is the U.S. government's official web portal to all federal, state and local government web resources and services.